FW8647 Weather Reports


time (UTC)temp
F
wind
direction
speed
knots
gust
knots
rain 1hr
in
rain 24hr
in
rain mn
in
humidity
%
barometer
mb
20260507071601 41 237 0.0 0.0 0.00 0.00 0.00 73 1015.3
20260507070600 41 226 0.0 0.0 0.00 0.00 0.00 74 1015.3
20260507065559 41 322 0.9 0.9 0.00 0.00 0.00 74 1015.5
20260507064554 41 306 0.0 0.0 0.00 0.00 0.00 73 1015.3
20260507063549 41 291 0.0 0.0 0.00 0.00 0.00 72 1015.3
20260507062549 42 298 0.0 0.0 0.00 0.00 0.00 71 1015.4
20260507061544 42 226 0.0 0.0 0.00 0.00 0.00 70 1015.4
20260507060540 42 197 0.0 0.0 0.00 0.00 0.00 70 1015.5
20260507055536 42 192 0.0 0.0 0.00 0.00 0.00 67 1015.6
20260507054535 42 182 0.0 0.0 0.00 0.00 0.00 65 1015.6
20260507053530 42 198 0.0 0.0 0.00 0.00 0.00 65 1015.9
20260507052526 42 174 0.0 0.0 0.00 0.00 0.00 65 1016.2
20260507051526 42 184 0.0 0.0 0.00 0.00 0.00 63 1015.8
20260507050524 43 145 0.0 0.0 0.00 0.00 0.00 61 1016.3
20260507045523 43 202 0.0 0.0 0.00 0.00 0.00 62 1015.7
20260507044523 43 192 0.0 0.0 0.00 0.00 0.00 63 1016.0
20260507043522 43 202 0.0 0.0 0.00 0.00 0.00 61 1015.8
20260507042521 43 205 0.0 0.0 0.00 0.00 0.00 59 1016.0
20260507041520 43 197 0.0 0.0 0.00 0.00 0.00 59 1016.2
20260507040519 43 198 0.0 0.0 0.00 0.00 0.00 59 1016.2
20260507035517 43 191 0.0 0.0 0.00 0.14 0.14 58 1015.9
20260507034516 43 195 0.0 0.0 0.00 0.14 0.14 58 1016.0
20260507033512 43 191 0.0 0.0 0.00 0.14 0.14 58 1016.4
20260507032512 43 201 0.0 0.0 0.00 0.14 0.14 57 1016.2
20260507031510 44 208 0.0 0.0 0.00 0.14 0.14 56 1016.3
20260507030510 44 199 0.0 0.0 0.00 0.14 0.14 55 1016.0
20260507025510 44 194 0.0 0.0 0.00 0.14 0.14 54 1016.0
20260507024506 44 198 0.0 0.0 0.00 0.14 0.14 54 1016.0
20260507023504 44 216 0.0 0.0 0.00 0.14 0.14 52 1016.0
20260507022504 44 192 0.0 0.0 0.00 0.14 0.14 51 1015.8
20260507021501 44 215 0.0 0.0 0.00 0.14 0.14 51 1015.9
20260507020501 45 236 0.0 0.0 0.00 0.14 0.14 51 1016.2
20260507015457 44 197 0.0 0.0 0.00 0.14 0.14 51 1015.9
20260507014456 44 252 0.0 0.0 0.00 0.14 0.14 52 1015.8
20260507013454 44 255 0.0 0.0 0.00 0.14 0.14 52 1015.9
20260507012454 44 208 0.0 0.0 0.00 0.14 0.14 53 1016.0
20260507011454 44 208 0.0 0.0 0.00 0.14 0.14 52 1015.9
20260507010450 44 213 0.0 0.0 0.00 0.14 0.14 53 1016.2
20260507005450 44 249 0.0 0.0 0.00 0.14 0.14 53 1015.9
20260507004449 45 315 0.0 0.0 0.00 0.14 0.14 52 1015.8
20260507003448 45 313 0.0 0.0 0.00 0.14 0.14 51 1016.0
20260507002446 46 331 0.0 0.9 0.00 0.14 0.14 50 1015.5
20260507001445 46 327 0.9 1.7 0.00 0.14 0.14 49 1015.5
20260507000444 46 344 2.6 4.3 0.00 0.14 0.14 47 1015.2
20260506235444 46 343 2.6 4.3 0.00 0.14 0.14 47 1015.5
20260506234443 46 312 4.3 6.1 0.00 0.14 0.14 46 1015.3
20260506233442 47 333 1.7 2.6 0.00 0.14 0.14 46 1015.4
20260506232441 47 356 3.5 7.8 0.00 0.14 0.14 46 1015.4
20260506231441 47 330 5.2 8.7 0.00 0.14 0.14 45 1015.6
20260506230440 47 329 0.0 0.9 0.00 0.14 0.14 45 1015.3
20260506225440 47 340 6.1 8.7 0.00 0.14 0.14 44 1015.2
20260506224440 47 308 5.2 7.8 0.00 0.14 0.14 45 1015.4
20260506223437 47 327 4.3 6.1 0.00 0.14 0.14 45 1015.2
20260506222437 47 281 5.2 8.7 0.00 0.14 0.14 45 1015.6
20260506221437 48 310 5.2 7.0 0.00 0.14 0.14 45 1015.3
20260506220436 47 341 5.2 7.8 0.00 0.14 0.14 45 1015.0
20260506215435 47 326 4.3 5.2 0.00 0.14 0.14 48 1015.0
20260506214434 48 290 3.5 7.0 0.00 0.14 0.14 49 1014.8
20260506213429 48 321 5.2 7.8 0.00 0.14 0.14 50 1014.8
20260506212427 48 313 4.3 7.8 0.00 0.14 0.14 50 1014.6
20260506211423 47 4 3.5 6.1 0.00 0.14 0.14 52 1014.7
20260506210422 47 21 3.5 7.0 0.00 0.14 0.14 53 1014.3
20260506205420 48 272 4.3 6.1 0.00 0.14 0.14 53 1014.4
20260506204420 48 311 6.1 8.7 0.00 0.14 0.14 52 1014.3
20260506203420 48 305 5.2 7.0 0.00 0.14 0.14 53 1014.3
20260506202420 49 330 6.1 9.6 0.00 0.14 0.14 52 1014.1
20260506201420 48 322 6.1 8.7 0.00 0.14 0.14 53 1014.0
20260506200418 48 252 2.6 4.3 0.00 0.14 0.14 53 1014.4
20260506195418 48 345 7.8 9.6 0.00 0.14 0.14 52 1014.1
20260506194418 50 35 3.5 5.2 0.00 0.14 0.14 52 1014.0
20260506193418 49 327 5.2 9.6 0.00 0.14 0.14 53 1014.1
20260506192417 49 313 3.5 5.2 0.00 0.14 0.14 53 1014.0
20260506191416 49 343 4.3 6.1 0.00 0.14 0.14 52 1014.1
20260506190415 49 249 5.2 8.7 0.00 0.14 0.14 54 1014.3
20260506185416 49 259 3.5 5.2 0.00 0.14 0.14 55 1014.2
20260506184415 50 302 4.3 7.8 0.00 0.14 0.14 56 1014.0
20260506183414 49 33 6.1 7.8 0.00 0.14 0.14 55 1014.0
20260506182414 49 283 4.3 7.0 0.00 0.14 0.14 55 1013.7
20260506181409 50 272 1.7 2.6 0.00 0.14 0.14 56 1013.6
20260506180408 50 347 1.7 2.6 0.00 0.14 0.14 57 1013.5
20260506175408 49 5 3.5 5.2 0.00 0.14 0.14 59 1013.8
20260506174402 49 288 3.5 5.2 0.00 0.14 0.14 60 1014.0
20260506173401 48 302 1.7 2.6 0.00 0.14 0.14 62 1013.4
20260506172401 49 323 6.1 8.7 0.00 0.14 0.14 63 1013.2
20260506171356 49 336 7.8 13.0 0.00 0.14 0.14 64 1013.2
20260506170355 49 337 4.3 8.7 0.00 0.14 0.14 65 1013.4
20260506165352 49 268 6.1 7.8 0.00 0.14 0.14 67 1013.4
20260506164351 48 335 7.0 11.3 0.00 0.14 0.14 71 1013.3
20260506163349 48 336 4.3 7.0 0.00 0.14 0.14 73 1012.9
20260506162349 50 8 3.5 7.0 0.00 0.14 0.14 73 1013.2
20260506161343 49 352 3.5 7.8 0.00 0.14 0.14 74 1013.4
20260506160343 50 342 5.2 7.8 0.00 0.14 0.14 75 1013.2
20260506155338 49 279 4.3 5.2 0.00 0.14 0.14 79 1012.5
20260506153456 49 279 4.3 5.2 0.00 0.14 0.14 79 1012.5
20260506152455 49 223 0.9 2.6 0.00 0.14 0.14 83 1012.5
20260506151451 48 192 0.9 0.9 0.00 0.14 0.14 86 1012.3
20260506150450 48 235 2.6 2.6 0.00 0.14 0.14 84 1012.2
20260506145449 48 265 4.3 6.1 0.00 0.14 0.14 85 1012.4
20260506144449 48 261 3.5 4.3 0.00 0.14 0.14 84 1012.1
20260506143444 49 186 0.9 4.3 0.00 0.14 0.14 80 1012.0
20260506142440 48 187 0.0 0.9 0.00 0.14 0.14 83 1011.8
20260506141436 47 222 0.9 1.7 0.00 0.14 0.14 86 1011.5
20260506140431 47 192 2.6 5.2 0.00 0.14 0.14 83 1011.8
20260506135431 47 148 2.6 5.2 0.00 0.14 0.14 85 1011.7
20260506134428 47 193 0.0 0.0 0.00 0.14 0.14 90 1011.8
20260506133428 47 138 0.9 1.7 0.00 0.14 0.14 92 1011.8
20260506132428 46 203 2.6 2.6 0.00 0.14 0.14 94 1011.9
20260506131428 46 199 0.9 1.7 0.00 0.14 0.14 95 1011.9
20260506130427 46 208 0.0 0.0 0.00 0.14 0.14 96 1011.7
20260506125423 45 196 0.0 0.0 0.00 0.14 0.14 97 1011.8
20260506124418 45 201 0.0 0.0 0.00 0.14 0.14 98 1011.5
20260506123414 45 222 0.0 0.9 0.00 0.14 0.14 98 1011.5
20260506122413 45 219 0.0 0.0 0.00 0.14 0.14 99 1011.4
20260506121408 45 197 0.0 0.9 0.00 0.14 0.14 99 1011.7
20260506120403 46 206 0.0 0.0 0.00 0.14 0.14 99 1011.5
20260506115358 45 189 0.0 0.0 0.00 0.14 0.14 99 1011.4
20260506114358 45 191 0.0 0.0 0.00 0.14 0.14 99 1011.1
20260506113354 45 181 0.0 1.7 0.00 0.14 0.14 99 1011.2
20260506112354 45 124 0.0 0.0 0.00 0.14 0.14 99 1011.3
20260506111350 45 177 0.0 0.0 0.00 0.14 0.14 99 1010.8
20260506110349 45 187 0.0 0.0 0.00 0.14 0.14 99 1011.1
20260506105348 45 185 2.6 4.3 0.00 0.14 0.14 99 1010.8
20260506104344 45 192 1.7 1.7 0.00 0.14 0.14 99 1010.5
20260506103339 45 201 0.0 0.0 0.00 0.14 0.14 99 1010.4
20260506102334 45 201 1.7 2.6 0.00 0.14 0.14 99 1010.3
20260506101332 45 201 0.0 0.0 0.00 0.14 0.14 99 1010.3
20260506100329 45 201 0.0 0.0 0.00 0.14 0.14 99 1010.6
20260506095329 45 201 0.0 0.0 0.00 0.14 0.14 99 1010.6
20260506094325 46 201 0.0 0.0 0.00 0.14 0.14 99 1010.1
20260506093325 46 201 0.0 0.0 0.00 0.14 0.14 99 1009.8
20260506092321 45 201 0.0 0.9 0.00 0.14 0.14 99 1010.3
20260506091321 46 201 1.7 1.7 0.07 0.14 0.14 99 1010.6
20260506090316 46 201 0.0 0.0 0.00 0.13 0.13 99 1010.8
20260506085314 45 201 0.9 0.9 0.00 0.13 0.13 99 1011.0
20260506084314 45 201 0.0 0.9 0.05 0.13 0.13 99 1011.1
20260506083308 46 201 0.0 0.0 0.00 0.12 0.12 99 1010.8
20260506082307 46 201 2.6 2.6 0.00 0.12 0.12 99 1011.0
20260506081302 46 201 0.0 0.0 0.00 0.12 0.12 99 1011.1
20260506080301 46 202 0.0 0.0 0.00 0.12 0.12 99 1011.0
20260506073251 46 201 0.9 1.7 0.00 0.12 0.12 99 1011.1
20260506072246 46 202 0.0 0.0 0.00 0.12 0.12 99 1011.0